Temp
-10 -10 -10 -11 -10 -11 -10 -10 -10 -10 -10 -10 -10 -10 -9 -10 -11 -10 -11 -11 -11 -11 -11 -11 -11 -11 -11 -11 -12 -12 -12 -13 -13 -13 -14 -14 -14 -15 -15 -15 -15 -16 -16 -16
-10 -11 -11 -11 -11 -11 -10 -10 -10 -10 -11 -10 -11 -11 -10 -10 -10 -10 -11 -11 -11 -11 -12 -11 -11 -12 -12 -12 -13 -13 -13 -13 -14 -14 -15 -15 -16 -16 -16 -16 -16 -16 -17 -16
-11 -11 -11 -11 -10 -10 -10 -10 -11 -11 -10 -10 -10 -10 -10 -11 -10 -10 -11 -11 -11 -12 -12 -11 -12 -12 -12 -13 -13 -13 -13 -14 -15 -15 -15 -15 -16 -16 -16 -17 -17 -17 -17 -17
-10 -11 -11 -11 -11 -11 -11 -11 -10 -11 -11 -11 -10 -10 -10 -10 -11 -11 -11 -11 -11 -11 -12 -12 -12 -13 -13 -13 -13 -13 -14 -15 -15 -15 -16 -16 -16 -16 -16 -17 -17 -18 -17 -18
-10 -11 -11 -11 -11 -11 -11 -11 -10 -10 -10 -10 -10 -10 -10 -10 -11 -11 -11 -11 -11 -12 -12 -12 -12 -13 -13 -13 -13 -13 -14 -15 -15 -15 -15 -16 -16 -16 -16 -17 -17 -17 -17 -18
-10 -11 -11 -11 -11 -11 -11 -11 -10 -9 -10 -9 -10 -11 -11 -11 -11 -10 -10 -11 -12 -12 -12 -12 -12 -13 -13 -13 -13 -14 -14 -14 -15 -15 -15 -16 -16 -16 -16 -16 -17 -18 -18 -18
-11 -11 -12 -11 -10 -11 -11 -10 -11 -9 -9 -9 -10 -10 -10 -10 -10 -10 -11 -12 -12 -12 -13 -12 -12 -12 -13 -13 -14 -14 -15 -15 -15 -15 -15 -15 -16 -16 -17 -17 -17 -18 -18 -19
-11 -11 -10 -10 -11 -11 -10 -10 -10 -10 -10 -11 -11 -11 -11 -10 -10 -10 -11 -12 -12 -13 -12 -12 -13 -13 -14 -14 -15 -15 -15 -15 -16 -16 -16 -16 -16 -16 -17 -17 -18 -18 -19 -19
-11 -10 -11 -11 -11 -11 -10 -10 -10 -11 -10 -11 -11 -11 -10 -10 -10 -11 -12 -12 -13 -12 -12 -13 -13 -14 -14 -14 -15 -15 -15 -15 -15 -15 -16 -16 -17 -17 -17 -18 -18 -18 -19 -19
-11 -10 -11 -11 -11 -10 -11 -10 -10 -11 -11 -11 -11 -11 -10 -10 -11 -12 -12 -13 -13 -13 -13 -13 -14 -14 -14 -15 -15 -15 -15 -15 -15 -16 -16 -16 -16 -17 -18 -18 -19 -19 -20 -20
-11 -11 -10 -11 -11 -10 -10 -11 -10 -11 -11 -12 -11 -10 -10 -11 -12 -12 -13 -13 -13 -14 -14 -14 -14 -14 -14 -15 -16 -16 -16 -16 -16 -16 -16 -16 -16 -18 -19 -19 -20 -20 -20 -20
-11 -11 -10 -10 -10 -10 -10 -10 -10 -11 -11 -12 -11 -10 -11 -12 -12 -13 -13 -14 -14 -14 -14 -14 -14 -14 -15 -16 -16 -16 -16 -16 -16 -17 -17 -17 -17 -19 -19 -20 -20 -20 -21 -20
-12 -11 -10 -9 -10 -10 -10 -10 -11 -10 -10 -11 -11 -11 -12 -12 -13 -13 -14 -13 -14 -14 -14 -14 -14 -15 -15 -16 -16 -16 -15 -16 -16 -16 -17 -17 -18 -19 -20 -20 -20 -21 -20 -20
-11 -11 -11 -10 -10 -10 -10 -11 -11 -10 -11 -11 -11 -12 -13 -13 -13 -13 -13 -14 -14 -14 -14 -14 -15 -15 -15 -16 -16 -16 -16 -16 -16 -16 -17 -17 -18 -19 -19 -20 -20 -21 -20 -20
-12 -12 -11 -10 -10 -10 -10 -11 -11 -12 -12 -12 -12 -13 -13 -13 -13 -13 -14 -14 -14 -14 -15 -15 -15 -15 -16 -16 -16 -16 -16 -16 -17 -17 -17 -18 -18 -19 -20 -20 -20 -20 -20 -20
-12 -11 -10 -11 -11 -11 -11 -11 -11 -11 -12 -12 -12 -13 -13 -14 -14 -14 -14 -14 -15 -15 -16 -15 -16 -16 -16 -16 -16 -16 -16 -16 -17 -17 -18 -18 -18 -20 -20 -20 -20 -20 -20 -19
-11 -11 -11 -11 -11 -11 -11 -11 -12 -12 -13 -12 -13 -14 -14 -15 -14 -14 -15 -15 -15 -16 -16 -16 -16 -16 -17 -16 -17 -16 -16 -16 -17 -17 -18 -18 -19 -20 -20 -20 -20 -20 -20 -19
-12 -12 -12 -11 -11 -11 -12 -12 -12 -12 -13 -13 -14 -14 -14 -14 -15 -15 -16 -16 -16 -16 -16 -16 -16 -17 -17 -17 -17 -17 -17 -17 -17 -18 -18 -18 -19 -20 -21 -21 -20 -20 -20 -20
-12 -12 -11 -11 -11 -12 -12 -12 -12 -13 -13 -13 -13 -14 -15 -15 -15 -16 -16 -16 -16 -16 -17 -17 -17 -17 -18 -18 -17 -17 -17 -17 -17 -18 -19 -19 -20 -20 -21 -21 -21 -20 -20 -20
-12 -11 -11 -13 -12 -13 -13 -13 -13 -13 -13 -14 -14 -15 -15 -15 -16 -16 -17 -17 -17 -17 -17 -18 -18 -18 -18 -18 -17 -17 -18 -17 -18 -19 -19 -19 -20 -21 -21 -21 -21 -21 -20 -20
-12 -12 -12 -12 -12 -13 -13 -13 -13 -13 -14 -14 -14 -15 -15 -16 -16 -17 -17 -17 -17 -17 -18 -19 -18 -18 -18 -18 -18 -17 -18 -18 -19 -19 -19 -20 -21 -21 -21 -22 -22 -21 -21 -20
-12 -12 -12 -12 -12 -12 -13 -13 -13 -14 -14 -14 -14 -15 -15 -16 -16 -17 -18 -18 -18 -18 -19 -20 -19 -18 -18 -18 -17 -18 -18 -18 -19 -19 -20 -20 -21 -22 -22 -22 -22 -22 -21 -20
-12 -12 -12 -12 -12 -13 -13 -13 -13 -14 -14 -14 -14 -14 -15 -16 -18 -18 -19 -18 -19 -19 -20 -20 -19 -19 -18 -18 -18 -18 -18 -18 -19 -20 -20 -21 -22 -22 -23 -23 -23 -22 -22 -21
-12 -12 -12 -12 -13 -13 -13 -13 -13 -13 -14 -14 -14 -15 -15 -17 -19 -19 -19 -19 -19 -19 -20 -20 -19 -19 -18 -18 -18 -18 -18 -18 -19 -20 -21 -21 -22 -23 -24 -24 -24 -23 -22 -21
-12 -12 -12 -13 -13 -13 -12 -12 -13 -13 -13 -14 -15 -15 -16 -17 -19 -19 -19 -19 -19 -19 -20 -20 -19 -19 -18 -18 -18 -18 -18 -18 -19 -20 -21 -22 -23 -25 -26 -26 -25 -24 -23 -22
-12 -12 -13 -13 -13 -12 -12 -13 -13 -13 -14 -14 -15 -16 -16 -18 -19 -19 -19 -19 -19 -19 -19 -20 -19 -19 -19 -19 -18 -18 -18 -18 -19 -20 -21 -22 -24 -26 -27 -27 -26 -25 -23 -22
Height
5905 5906 5905 5905 5904 5903 5901 5898 5895 5893 5888 5885 5881 5877 5875 5873 5874 5873 5871 5866 5866 5862 5858 5854 5849 5844 5840 5834 5827 5821 5816 5810 5805 5801 5794 5789 5782 5777 5773 5771 5767 5764 5761 5757
5904 5903 5902 5901 5901 5898 5896 5893 5891 5890 5885 5878 5877 5872 5872 5870 5868 5867 5866 5863 5860 5855 5851 5848 5842 5839 5833 5826 5819 5812 5806 5801 5797 5790 5784 5779 5773 5769 5764 5760 5757 5753 5750 5746
5901 5900 5898 5897 5895 5894 5893 5891 5890 5889 5881 5873 5871 5869 5868 5866 5864 5862 5859 5855 5851 5849 5846 5842 5836 5830 5824 5817 5811 5804 5798 5791 5785 5780 5775 5770 5766 5762 5757 5753 5749 5747 5743 5738
5897 5897 5896 5895 5890 5891 5892 5890 5888 5887 5885 5879 5873 5866 5866 5861 5858 5857 5856 5850 5847 5842 5840 5835 5827 5822 5815 5808 5800 5795 5789 5783 5778 5774 5768 5764 5759 5754 5749 5745 5740 5737 5732 5728
5899 5896 5893 5893 5893 5892 5890 5886 5884 5881 5880 5874 5870 5863 5859 5858 5855 5850 5849 5843 5840 5835 5831 5824 5817 5812 5804 5800 5794 5788 5782 5777 5773 5768 5763 5758 5752 5746 5740 5735 5731 5726 5722 5719
5893 5894 5892 5891 5891 5889 5885 5882 5878 5877 5874 5870 5863 5858 5857 5853 5850 5846 5844 5839 5835 5829 5823 5818 5812 5805 5800 5794 5787 5781 5776 5772 5766 5759 5754 5748 5742 5736 5730 5724 5718 5715 5711 5707
5889 5890 5889 5886 5886 5885 5880 5876 5873 5873 5867 5862 5856 5851 5850 5846 5843 5839 5837 5834 5827 5821 5816 5810 5804 5799 5792 5785 5778 5772 5767 5762 5757 5752 5745 5738 5732 5725 5719 5712 5707 5703 5700 5697
5884 5885 5884 5883 5881 5878 5875 5871 5867 5862 5858 5855 5851 5846 5844 5839 5836 5833 5830 5824 5819 5815 5810 5802 5796 5790 5785 5780 5773 5767 5762 5756 5749 5742 5736 5729 5722 5714 5706 5700 5695 5691 5688 5685
5876 5879 5880 5879 5877 5874 5869 5867 5863 5858 5855 5849 5846 5840 5838 5834 5830 5827 5821 5819 5813 5806 5800 5793 5787 5783 5776 5768 5762 5757 5752 5746 5741 5734 5726 5718 5711 5703 5695 5689 5683 5679 5675 5673
5875 5875 5875 5875 5870 5868 5862 5860 5858 5853 5848 5843 5839 5834 5832 5830 5825 5820 5817 5811 5805 5799 5793 5788 5781 5773 5767 5761 5755 5750 5744 5737 5731 5723 5715 5706 5699 5691 5682 5677 5671 5666 5663 5661
5872 5871 5870 5868 5865 5861 5857 5852 5850 5848 5845 5839 5833 5829 5828 5826 5820 5816 5811 5806 5799 5793 5787 5782 5777 5769 5762 5755 5749 5742 5736 5729 5722 5714 5705 5696 5688 5680 5671 5666 5659 5655 5652 5650
5865 5866 5863 5861 5857 5854 5851 5850 5848 5844 5841 5835 5828 5825 5824 5819 5814 5809 5804 5800 5795 5789 5783 5778 5771 5764 5756 5749 5743 5736 5728 5721 5713 5705 5695 5686 5677 5669 5661 5656 5650 5646 5643 5640
5863 5861 5857 5855 5852 5848 5846 5842 5838 5836 5833 5831 5825 5823 5819 5814 5809 5805 5801 5795 5790 5785 5779 5771 5764 5756 5749 5742 5735 5727 5719 5712 5703 5695 5686 5677 5668 5660 5653 5648 5643 5638 5635 5632
5855 5853 5851 5849 5846 5842 5840 5837 5832 5829 5824 5823 5820 5816 5813 5808 5803 5798 5792 5788 5785 5778 5768 5761 5754 5748 5742 5734 5727 5719 5713 5704 5695 5687 5679 5670 5661 5654 5648 5643 5638 5634 5631 5629
5851 5848 5847 5843 5842 5837 5834 5831 5827 5823 5820 5815 5814 5811 5808 5803 5799 5794 5787 5781 5774 5767 5760 5753 5747 5740 5733 5726 5719 5712 5705 5697 5688 5679 5671 5662 5655 5648 5644 5637 5633 5630 5628 5626
5844 5842 5842 5839 5837 5833 5830 5827 5825 5820 5816 5810 5808 5804 5799 5795 5790 5784 5776 5770 5765 5759 5753 5746 5741 5734 5726 5719 5712 5705 5697 5689 5680 5670 5663 5655 5648 5642 5637 5632 5628 5626 5624 5623
5838 5838 5838 5835 5832 5829 5826 5824 5820 5816 5810 5805 5802 5798 5793 5788 5783 5775 5770 5765 5759 5754 5745 5739 5732 5726 5717 5710 5703 5696 5688 5680 5672 5663 5656 5648 5641 5635 5631 5626 5623 5621 5621 5621
5835 5834 5832 5831 5827 5825 5822 5820 5815 5811 5806 5800 5797 5791 5785 5780 5774 5767 5762 5756 5750 5742 5735 5729 5722 5715 5708 5702 5694 5687 5679 5671 5663 5656 5648 5641 5634 5628 5622 5619 5617 5616 5616 5617
5834 5832 5828 5826 5824 5821 5817 5814 5810 5805 5802 5796 5791 5784 5778 5773 5765 5758 5752 5746 5740 5732 5726 5721 5714 5706 5700 5694 5687 5680 5671 5662 5654 5647 5640 5632 5627 5620 5614 5611 5609 5609 5611 5612
5829 5827 5823 5820 5819 5817 5814 5808 5804 5797 5794 5788 5783 5778 5771 5764 5757 5750 5744 5738 5731 5724 5718 5712 5706 5700 5694 5686 5680 5673 5664 5656 5647 5638 5630 5623 5618 5612 5606 5603 5602 5602 5604 5607
5823 5821 5819 5817 5814 5811 5808 5804 5798 5793 5790 5782 5776 5771 5766 5759 5751 5743 5736 5729 5722 5717 5711 5705 5699 5693 5688 5680 5674 5666 5658 5649 5638 5629 5621 5614 5609 5603 5598 5595 5594 5595 5597 5601
5819 5817 5814 5811 5808 5805 5801 5797 5792 5787 5780 5775 5770 5764 5757 5748 5739 5732 5726 5720 5714 5709 5702 5696 5692 5687 5682 5674 5668 5659 5650 5640 5630 5621 5613 5605 5599 5593 5588 5586 5585 5587 5590 5594
5815 5814 5810 5809 5805 5801 5798 5793 5788 5782 5777 5772 5766 5758 5748 5738 5730 5723 5718 5712 5707 5703 5696 5691 5686 5681 5676 5668 5661 5653 5644 5634 5623 5613 5603 5596 5588 5582 5577 5574 5574 5578 5582 5587
5811 5808 5805 5804 5800 5797 5793 5788 5784 5779 5774 5767 5759 5750 5741 5731 5723 5717 5711 5706 5701 5697 5692 5687 5681 5676 5670 5663 5656 5648 5638 5627 5616 5606 5596 5585 5575 5567 5562 5561 5562 5567 5573 5580
5808 5804 5802 5798 5794 5790 5786 5782 5778 5771 5765 5759 5752 5743 5733 5723 5716 5711 5705 5700 5696 5692 5687 5682 5677 5672 5666 5659 5652 5645 5635 5624 5612 5599 5587 5575 5562 5553 5548 5548 5550 5556 5563 5573
5804 5801 5797 5794 5791 5787 5783 5777 5771 5764 5758 5752 5745 5736 5726 5717 5711 5706 5700 5695 5691 5687 5684 5679 5674 5669 5663 5656 5648 5640 5630 5619 5607 5594 5581 5566 5551 5541 5536 5536 5540 5547 5557 5567
Wind_Speed
17 10 4 10 13 20 19 21 25 31 29 33 33 31 29 28 26 15 31 19 18 21 24 35 36 35 33 32 30 36 38 39 39 44 50 51 51 49 55 45 36 28 40 33
10 8 8 8 12 11 17 16 23 24 28 33 29 29 29 28 28 34 26 18 23 27 33 40 34 37 33 35 36 37 40 44 45 45 46 45 43 44 37 36 43 37 29 35
15 7 1 11 18 9 14 22 23 26 35 39 32 32 34 34 34 38 39 33 25 33 30 34 37 37 36 36 38 41 44 45 41 38 37 39 40 39 38 36 30 29 29 32
17 10 3 10 16 21 27 26 27 30 31 37 36 34 30 34 38 38 41 31 28 35 35 39 37 34 37 40 42 45 44 38 34 33 36 37 39 39 40 38 39 35 35 31
14 14 8 13 19 22 27 31 34 37 33 32 30 32 31 32 34 39 35 33 35 38 42 40 39 40 42 44 45 46 37 33 34 36 38 40 42 45 44 43 41 37 33 25
13 17 13 20 24 24 33 30 30 24 29 29 27 28 29 31 34 35 37 37 30 37 39 41 40 41 43 45 48 40 31 33 37 42 44 46 47 48 47 48 45 40 41 40
5 13 16 20 21 24 30 31 32 29 22 26 26 29 29 31 32 35 35 32 34 39 38 42 41 43 45 47 47 37 34 37 41 44 47 48 49 50 49 48 47 45 37 38
19 18 22 21 23 29 30 29 33 29 28 28 26 29 30 31 34 34 36 39 41 38 40 41 43 45 46 46 37 32 33 38 44 47 48 48 49 50 51 50 47 44 40 38
26 22 27 18 27 29 31 32 31 32 32 30 29 33 32 34 35 35 38 41 36 44 42 43 45 47 48 47 37 35 38 44 47 47 48 49 47 48 50 48 44 42 40 36
29 17 11 20 31 31 33 35 33 33 32 33 34 35 35 36 34 34 35 32 41 43 41 43 46 49 49 43 36 37 40 45 48 49 51 51 50 50 52 47 43 41 36 34
27 28 15 21 26 24 29 32 34 32 31 34 37 37 36 33 32 33 34 36 38 40 42 43 45 46 45 38 36 37 40 44 46 49 50 50 52 51 46 40 40 36 32 31
29 21 22 24 23 23 28 29 27 26 29 31 34 37 34 31 31 33 35 36 36 39 40 42 43 43 41 35 35 36 40 43 45 45 46 50 53 49 41 37 33 32 28 31
22 23 22 20 24 25 28 27 29 28 27 24 30 30 28 28 31 35 33 36 36 36 38 41 43 43 39 36 37 40 43 45 46 47 47 50 50 42 38 34 31 27 27 19
24 19 21 20 25 28 24 22 28 31 31 27 26 27 24 28 33 37 38 38 37 37 39 42 44 45 40 36 38 41 42 44 47 47 45 47 46 39 38 32 28 27 18 14
18 16 18 20 22 25 24 24 25 28 31 34 24 23 25 29 34 38 40 40 41 40 40 42 44 46 41 38 40 41 41 42 45 45 43 45 42 39 38 29 26 22 18 17
17 18 19 18 19 22 24 23 23 26 34 37 22 26 31 36 38 41 42 43 42 40 41 41 41 44 40 39 39 40 41 42 44 46 41 43 39 38 36 30 24 18 15 12
15 15 17 21 21 20 25 23 26 25 27 28 32 30 33 36 40 41 42 42 41 39 41 39 38 42 38 37 39 40 41 43 44 43 39 39 35 36 36 28 23 16 11 6
16 17 20 14 18 14 19 21 23 26 25 29 27 40 40 42 42 43 43 43 43 42 42 38 39 40 37 37 38 40 42 43 43 40 37 35 33 34 33 25 22 16 15 10
13 17 18 17 21 21 18 22 22 22 29 34 37 37 40 42 45 46 45 44 43 42 38 36 39 41 37 36 37 39 41 44 43 39 35 33 31 33 32 25 21 17 18 17
16 17 16 19 22 16 17 21 23 27 31 33 34 36 40 44 45 44 44 42 41 39 33 36 39 41 35 36 37 39 40 44 39 36 35 32 31 32 30 24 20 17 17 18
18 20 20 19 21 21 17 23 25 28 32 36 37 39 41 42 44 43 41 39 36 32 31 35 37 36 33 35 36 38 39 43 38 37 36 33 31 32 27 23 18 17 18 18
20 20 19 19 21 21 21 32 33 33 35 37 38 40 43 46 47 45 40 33 31 31 33 34 36 32 31 34 35 37 39 44 42 37 35 31 31 31 27 23 21 19 19 22
18 17 18 18 18 16 27 28 29 30 31 33 35 40 45 47 42 40 38 36 32 35 31 33 32 30 30 33 35 37 40 41 43 39 37 36 35 31 27 24 24 24 23 29
16 17 17 20 21 23 26 26 23 25 29 34 40 44 46 43 38 34 33 31 28 28 30 29 29 29 30 33 35 37 40 42 45 41 39 40 39 33 27 23 22 24 26 29
16 17 18 17 24 28 24 23 27 32 36 40 43 46 47 42 36 32 31 28 28 25 28 28 29 29 30 32 34 35 39 42 47 44 45 46 42 32 24 20 20 25 32 30
16 20 18 19 26 21 22 26 31 37 41 44 45 47 46 39 33 31 28 27 23 24 28 26 28 27 29 32 34 37 41 44 50 48 50 49 43 28 19 13 15 22 32 32
Wind_Direction
201 186 59 22 349 345 327 331 327 328 329 320 326 333 337 327 328 291 318 301 299 331 320 323 322 323 321 320 317 315 317 319 313 303 305 306 308 302 302 302 292 304 302 303
171 88 13 337 323 295 305 319 313 320 321 319 329 328 326 323 319 317 298 318 265 291 320 316 315 325 324 322 324 324 323 320 314 309 307 307 311 310 312 291 292 311 304 288
152 154 98 324 286 301 300 300 305 323 318 321 321 314 315 309 315 313 319 320 293 271 313 319 317 326 327 325 324 326 323 318 316 315 315 317 315 314 310 307 309 304 298 286
199 178 177 302 300 319 318 303 301 297 301 300 303 302 308 309 311 311 323 325 324 301 320 320 329 328 328 330 330 327 322 319 318 316 317 317 315 313 310 309 305 297 297 277
218 191 219 261 266 287 308 291 295 293 298 293 296 297 302 302 305 306 317 312 314 311 316 327 332 329 331 329 327 325 322 319 316 315 314 313 313 310 308 307 304 297 295 285
245 226 261 264 268 277 295 304 302 297 286 292 298 287 287 292 295 303 305 311 316 308 321 323 327 328 326 325 326 321 317 315 316 317 316 314 312 309 307 305 303 301 295 286
198 211 249 279 272 284 300 307 304 299 298 315 309 302 305 301 306 302 304 314 317 315 315 322 323 323 325 327 325 319 320 318 315 312 312 313 312 310 307 304 302 299 293 286
264 226 253 278 292 294 301 303 313 313 323 321 312 308 311 310 308 306 311 314 314 313 312 321 324 327 326 323 318 309 311 312 315 316 314 313 311 307 305 302 299 297 293 287
250 254 274 286 293 296 295 305 304 306 310 310 307 309 312 312 307 310 314 310 307 315 322 326 327 322 324 324 319 317 318 316 315 316 316 315 311 308 304 302 300 296 292 290
268 267 268 294 295 296 297 297 301 307 310 309 310 308 311 309 308 310 314 314 317 319 322 324 324 321 322 321 315 314 317 317 317 318 318 317 316 311 307 307 298 294 291 288
273 278 289 301 294 291 292 294 301 304 300 300 302 305 308 308 309 318 318 319 318 319 322 323 316 318 320 316 312 316 316 315 316 317 317 316 317 315 313 307 301 297 291 285
294 264 294 299 299 298 291 295 292 289 291 296 298 304 311 319 321 319 321 318 314 317 319 312 315 319 315 309 307 315 314 315 318 317 316 318 318 321 319 314 305 297 296 293
263 275 280 298 302 297 299 299 297 299 299 305 295 303 314 318 319 320 318 313 318 318 311 315 320 317 313 308 312 315 316 318 319 321 320 320 322 322 323 318 309 304 306 299
279 267 292 304 301 299 298 298 299 304 309 302 301 307 314 320 319 319 320 320 317 316 321 320 318 318 314 311 312 313 317 319 320 321 320 319 322 321 324 315 311 305 307 287
295 297 300 300 298 298 304 304 305 309 304 302 300 308 308 318 316 316 315 320 322 322 319 316 317 318 313 309 309 314 318 319 320 319 320 319 319 316 323 313 308 303 308 287
280 290 311 309 311 310 312 307 301 312 316 305 285 306 327 318 315 315 320 322 322 321 314 312 315 315 307 305 309 315 318 321 322 320 320 316 314 312 317 312 303 296 297 270
305 306 305 314 311 314 307 320 313 302 308 313 299 306 321 312 312 315 318 318 317 314 308 309 313 314 307 308 314 317 321 323 323 318 318 314 312 309 313 307 295 284 266 262
302 308 309 304 322 310 315 315 324 312 307 319 311 320 322 319 317 318 319 317 315 312 311 309 316 317 310 314 318 320 323 325 322 316 317 314 309 311 311 302 285 276 252 234
310 289 301 302 320 317 311 323 314 312 309 309 315 317 319 319 319 318 316 314 312 310 309 315 319 314 313 316 317 323 324 327 321 318 319 310 308 315 310 300 286 268 244 230
301 307 305 316 316 336 323 313 315 321 321 320 321 323 321 320 316 313 312 310 310 309 311 320 319 312 314 315 321 323 326 328 323 319 319 311 308 315 307 297 279 259 238 231
307 314 311 322 327 322 329 334 326 327 325 327 329 326 323 316 311 310 310 310 311 311 317 317 316 312 315 316 322 324 328 335 329 325 323 314 306 311 304 292 273 254 229 220
304 306 319 322 319 321 321 331 333 334 333 331 329 324 319 316 315 315 314 315 314 307 313 320 319 313 315 319 325 328 329 334 335 328 326 319 313 310 301 285 269 245 231 201
300 311 317 327 327 324 326 331 336 332 331 331 330 330 327 324 320 317 315 315 310 321 322 320 314 316 319 326 328 334 334 338 339 335 333 327 320 312 299 282 259 238 227 207
309 310 316 326 329 336 335 336 340 335 338 337 334 334 332 326 324 324 321 318 310 316 327 322 318 318 326 328 333 338 339 341 344 340 336 331 328 315 298 280 260 229 220 209
311 311 316 321 334 334 332 341 343 344 342 340 338 336 337 331 330 329 326 321 315 320 329 328 323 323 328 330 335 340 346 346 347 346 343 340 334 322 300 272 251 223 208 202
320 322 319 320 322 331 339 345 346 344 341 338 338 338 340 332 332 331 328 325 325 328 326 328 323 325 332 334 337 344 349 350 352 350 348 348 343 336 315 267 226 204 193 191